Date,TemperatureHighF,TemperatureAvgF,TemperatureLowF,DewpointHighF,DewpointAvgF,DewpointLowF,HumidityHigh,HumidityAvg,HumidityLow,PressureMaxIn,PressureMinIn,WindSpeedMaxMPH,WindSpeedAvgMPH,GustSpeedMaxMPH,PrecipitationSumIn
2013-2-1,45,41,30,30,27,13,65,57,44,30.35,30.06,4,2,8,0.00
2013-2-2,50,38,26,41,27,12,94,64,48,30.37,30.04,5,1,9,0.00
2013-2-3,59,47,38,38,34,30,85,65,36,30.04,29.85,8,2,12,0.00
2013-2-4,49,40,28,35,30,26,94,71,46,30.12,29.99,3,1,5,0.00
2013-2-7,60,55,54,55,53,50,97,92,70,30.10,29.68,6,1,10,0.90
2013-2-8,56,52,49,55,51,47,99,96,92,29.71,29.62,5,3,10,0.12
2013-2-9,62,47,34,40,32,25,93,61,28,30.33,30.03,4,1,6,0.00
2013-2-10,49,34,30,42,32,29,96,93,77,30.41,30.31,1,0,1,0.00
2013-2-11,62,60,58,61,59,57,96,95,93,30.05,29.97,4,2,6,0.62
2013-2-12,63,57,49,58,54,48,97,90,62,30.08,29.88,4,1,8,0.74
2013-2-13,67,54,48,61,51,46,98,89,64,29.91,29.63,7,2,13,0.21
2013-2-14,54,48,40,49,40,37,98,77,54,30.05,29.79,3,1,4,0.00
2013-2-15,59,45,32,43,38,31,98,79,45,30.07,29.93,5,1,7,0.00
2013-2-16,54,40,32,43,37,31,98,89,64,29.94,29.76,7,2,13,0.24
2013-2-17,42,33,26,31,24,18,94,72,41,30.26,29.93,8,3,20,0.05
2013-2-18,50,37,23,33,26,21,95,70,36,30.41,30.25,5,1,7,0.00
2013-2-19,63,49,33,55,45,31,97,87,60,30.25,29.92,5,2,17,0.09
2013-2-20,56,46,34,47,36,23,96,69,28,30.11,29.97,5,1,7,0.00
2013-2-21,59,45,35,41,33,23,95,67,34,30.18,30.06,5,1,9,0.00
2013-2-22,51,47,42,49,43,30,97,86,58,30.23,30.02,5,2,10,0.16
2013-2-23,47,44,43,46,43,42,97,97,97,30.02,29.91,2,0,3,0.20
2013-2-27,53,51,49,43,43,42,76,74,69,29.77,29.76,4,2,8,0.00
2013-2-28,59,51,44,42,37,32,85,61,38,29.82,29.71,8,4,18,0.00